Terminal Aerodrome Forecast
Issued by NWS Upton, NY

Home | Current Version | Previous Version | Text Only | Print | Product List | Glossary On
Versions: 1 2 3 4 5 6 7 8 9 10 11 12 13 14 15 16 17 18 19 20 21 22 23 24 25 26 27 28 29 30 31 32 33
000
FTUS41 KOKX 231900 AAA
TAFJFK
TAF AMD
KJFK 231901Z 2319/2424 34019G28KT P6SM VCSH SCT019 BKN025 OVC050
      TEMPO 2319/2323 SCT025 OVC050
     FM232300 33017G25KT P6SM BKN035 BKN070
     FM240500 33014KT P6SM BKN050 BKN080
     FM241400 32013G23KT P6SM BKN050
     FM242200 32013G19KT P6SM SCT050=

USA.gov is the U.S. government's official web portal to all federal, state and local government web resources and services.